CZ-4C DEB, 44616

Orbit data source: Space-Track

CZ-4C DEB, 44616 is space debris in SSO originally from a launch on Sat, 31 Mar 2018 UTC launched from the Taiyaun Space Center, China (TSC). Debris objects in space refer to the collection of defunct objects orbiting the Earth. Examples of debris include non-operational satellites, rocket bodies, and fragments generated from explosions, collisions, or faulty payload assembly.

Loading next visibility...
Identifier
44616, 2018-031K
Orbit
SSO
Country
Flag of CNCN / PRC
Related business
Manufacturer
Unknown
Mission
Spacecraft
Bus & Motor
Unknown
Mass
Unknown
Launch date (UTC)
2018-03-31 (7 years ago)
Launch vehicle
Unknown
Launch site
Taiyaun Space Center, China (TSC)
Object type
Payload
Rocket body
Debris
Shape & HBR
Unknown
Radar Cross Section
Small (<0.1 m²)

Expand to show TLE details & history
Last TLE update: 2 days ago

TLE from 2 days ago
0 CZ-4C DEB
1 44616U 18031K   25259.01451350  .00004612  00000-0  44819-3 0  9998
2 44616  97.8168 340.2223 0006543 119.2025 240.9849 14.93068031385250
Epoch: 2025-09-16T00:20Z
TLE epoch observation values (Epoch: 2025-09-16T00:20:53.966Z)
Latitude
-0.00007°
Longitude
-20.21344°
Altitude
593.631 km
Speed
7.562 km/s
True Right ascension
22h 40m 53s
True Declination
0° 00' 00"
Sunlit
Object was in full shadow at epoch
Visualization orbit readout
Latitude
Unknown
Longitude
Unknown
Altitude
Unknown
Speed
Unknown
Apparent Right ascension
Unknown
Apparent Declination
Unknown
Sunlit
N/A
Visualization observer readout
Local Sidereal Time
22:18:18
Azimuth
Unknown
Elevation
Unknown
Doppler factor
Unknown
Orbital elements
Apogee altitude
589.952 km
Perigee altitude
580.839 km
Semi-major axis
6,963.533 km
Eccentricity
0.00065
Inclination
97.8168°
RAAN
340.2223°
Arg. of periapsis
119.2025°
True anomaly
240.91936°
Mean anomaly
240.9849°
Eccentric anomaly
240.95213°
Mean motion
3.73507 °/min
Orbital period
96.38 mins
BSTAR
0.00044819
Loading maneuver chart data...
Computing Atmospheric mass density...
Loading historical data...
Loading historical data...
Loading historical data...
Loading historical data...
Loading historical data...
Loading historical data...
Loading historical data...

Documentation

Showing up to 5 results
|